Location: Coatesville
(39.9830°N, 75.8240°W)
Time: 05:37:46
(UTC-04:00)

Envisat - Visible Passes

Search period start: 21 March 2019 00:00
Search period end: 31 March 2019 00:00
Orbit: 764 x 766 km, 98.2° (Epoch: 21 March)

Date Brightness Start Highest point End Pass type
(mag) Time Alt. Az. Time Alt. Az. Time Alt. Az.
21 Mar 4.4 20:15:56 10° SSW 20:20:41 40° W 20:25:29 10° NNW visible
22 Mar 3.0 19:38:47 10° SSE 19:43:52 88° E 19:48:59 10° NNW visible
23 Mar 5.4 20:42:24 10° SW 20:46:23 23° W 20:50:23 10° NW visible
24 Mar 3.9 20:04:30 10° S 20:09:26 52° W 20:14:24 10° NNW visible
25 Mar 6.0 21:09:58 10° WSW 21:12:10 13° W 21:14:24 10° WNW visible
26 Mar 5.1 20:30:42 10° SSW 20:35:05 29° W 20:39:30 10° NW visible
27 Mar 3.5 19:53:09 10° S 19:58:11 67° WSW 20:03:16 10° NNW visible
28 Mar 5.8 20:57:40 10° SW 21:00:50 17° W 21:04:01 10° NW visible
29 Mar 4.6 20:19:09 10° SSW 20:23:48 37° W 20:28:30 10° NNW visible
